Terminal Aerodrome Forecast
Issued by NWS

Current Version | Previous Version | Text Only | Print | Product List | Glossary On
Versions: 1 2 3 4 5 6 7 8 9 10 11 12 13 14 15 16 17 18 19 20 21 22 23 24 25 26 27 28 29 30 31 32 33 34 35 36 37 38 39 40 41 42 43 44 45 46 47 48 49 50
000
FTUS41 KCTP 211309 AAA
TAFUNV
TAF AMD
KUNV 211309Z 2113/2212 00000KT P6SM VCSH SCT020 OVC040
     FM211430 21003KT 3SM -SHRA BKN020 OVC035
     FM211700 24005KT 6SM -SHRA OVC035
     FM220200 33007KT 5SM -SHRA BR OVC030=

USA.gov is the U.S. government's official web portal to all federal, state and local government web resources and services.